Location: Albany
(35.0170°S, 117.8920°E)
Time: 20:43:10
(UTC+08:00)

A-11 Canister half - Pass Details

Date: 27 January 2021
Orbit: 1525 x 1684 km, 47.3° (Epoch: 03 March)

Event Time Altitude Azimuth Distance (km) Brightness Sun altitude
Rises 00:31:41 0° 327° (NNW) 4,918 - -36.4°
Reaches altitude 10° 00:34:55 10° 331° (NNW) 3,939 - -36.3°
Maximum altitude 00:44:44 56° 45° (NE) 1,951 - -36.2°
Exits shadow 00:46:01 53° 70° (ENE) 2,002 9.3 -36.1°
Drops below altitude 10° 00:54:28 10° 119° (ESE) 3,922 11.5 -35.9°
Sets 00:57:40 0° 123° (ESE) 4,895 12.2 -35.8°
